Location: Bazinghen
(50.8246°N, 1.6616°E)
Time: 16:26:39
(UTC+00:00)

MetOp-B - Visible Passes

Search period start: 04 August 2021 00:00
Search period end: 14 August 2021 00:00
Orbit: 820 x 821 km, 98.7° (Epoch: 04 August)

Date Brightness Start Highest point End Pass type
(mag) Time Alt. Az. Time Alt. Az. Time Alt. Az.
04 Aug 4.6 20:58:09 10° S 21:03:28 62° WSW 21:08:48 10° NNW visible
05 Aug 4.2 20:37:21 10° SSE 20:42:43 88° WSW 20:48:07 10° NNW visible
05 Aug 6.5 22:20:32 10° WSW 22:23:35 15° W 22:26:40 10° NW visible
06 Aug 4.2 20:16:44 10° SSE 20:22:02 66° ENE 20:27:22 10° N visible
06 Aug 6.1 21:58:29 10° SW 22:02:36 22° W 22:06:44 10° NW visible
07 Aug 5.6 21:36:56 10° SSW 21:41:40 32° W 21:46:27 10° NNW visible
08 Aug 5.0 21:15:41 10° S 21:20:48 45° W 21:25:58 10° NNW visible
09 Aug 4.5 20:54:41 10° S 21:00:01 66° WSW 21:05:23 10° NNW visible
09 Aug 6.7 22:39:55 10° W 22:41:09 11° W 22:42:24 10° WNW visible
10 Aug 4.2 20:33:55 10° SSE 20:39:17 88° ENE 20:44:41 10° NNW visible
10 Aug 6.5 22:16:49 10° SW 22:20:06 16° W 22:23:24 10° NW visible
11 Aug 4.3 20:13:20 10° SSE 20:18:36 62° ENE 20:23:55 10° N visible
11 Aug 6.0 21:54:53 10° SW 21:59:06 23° W 22:03:23 10° NW visible
12 Aug 4.7 19:52:57 10° SE 19:57:59 44° ENE 20:03:04 10° N visible
12 Aug 5.5 21:33:23 10° SSW 21:38:12 33° W 21:43:04 10° NNW visible
13 Aug 4.9 21:12:15 10° S 21:17:21 48° W 21:22:34 10° NNW visible
